TimeMDT,TemperatureF,Dew PointF,Humidity,Sea Level PressureIn,VisibilityMPH,Wind Direction,Wind SpeedMPH,Gust SpeedMPH,PrecipitationIn,Events,Conditions,WindDirDegrees,DateUTC
12:56 AM,50.0,28.9,44,29.58,-9999.0,West,9.2,-,N/A,,Unknown,260,2012-10-21 06:56:00
1:56 AM,51.1,25.0,36,29.57,-9999.0,West,6.9,-,N/A,,Unknown,260,2012-10-21 07:56:00
2:56 AM,46.0,27.0,47,29.58,-9999.0,NW,6.9,-,N/A,,Unknown,320,2012-10-21 08:56:00
3:56 AM,46.0,26.1,46,29.58,-9999.0,WSW,9.2,-,N/A,,Unknown,250,2012-10-21 09:56:00
4:56 AM,48.9,21.9,35,29.60,-9999.0,WNW,6.9,-,N/A,,Unknown,290,2012-10-21 10:56:00
5:56 AM,53.1,21.9,30,29.62,-9999.0,WNW,10.4,-,N/A,,Unknown,300,2012-10-21 11:56:00
6:56 AM,54.0,21.0,28,29.64,-9999.0,WNW,10.4,-,N/A,,Unknown,300,2012-10-21 12:56:00
7:56 AM,59.0,19.0,21,29.63,-9999.0,NW,16.1,-,N/A,,Unknown,310,2012-10-21 13:56:00
8:56 AM,70.0,19.0,14,29.63,-9999.0,NW,17.3,-,N/A,,Unknown,320,2012-10-21 14:56:00
9:56 AM,75.9,19.0,12,29.62,-9999.0,NNW,16.1,25.3,N/A,,Unknown,340,2012-10-21 15:56:00
10:56 AM,78.1,19.0,11,29.62,-9999.0,North,16.1,-,N/A,,Unknown,350,2012-10-21 16:56:00
11:56 AM,79.0,19.9,11,29.62,-9999.0,North,13.8,-,N/A,,Unknown,350,2012-10-21 17:56:00
12:56 PM,81.0,21.0,11,29.60,-9999.0,North,12.7,-,N/A,,Unknown,10,2012-10-21 18:56:00
1:56 PM,82.0,21.0,10,29.58,-9999.0,North,8.1,-,N/A,,Unknown,360,2012-10-21 19:56:00
2:56 PM,82.9,19.0,9,29.58,-9999.0,NNE,5.8,-,N/A,,Unknown,20,2012-10-21 20:56:00
3:56 PM,82.9,17.1,9,29.59,-9999.0,Calm,Calm,-,N/A,,Unknown,0,2012-10-21 21:56:00
4:56 PM,81.0,19.0,10,29.60,-9999.0,Calm,Calm,-,N/A,,Unknown,0,2012-10-21 22:56:00
5:56 PM,69.1,30.0,23,29.62,-9999.0,ENE,8.1,-,N/A,,Unknown,70,2012-10-21 23:56:00
6:56 PM,59.0,30.9,35,29.67,-9999.0,ENE,4.6,-,N/A,,Unknown,70,2012-10-22 00:56:00
7:56 PM,57.0,30.0,36,29.68,-9999.0,NNE,5.8,-,N/A,,Unknown,30,2012-10-22 01:56:00
8:56 PM,53.1,30.9,43,29.68,-9999.0,North,3.5,-,N/A,,Unknown,10,2012-10-22 02:56:00
9:56 PM,52.0,32.0,47,29.68,-9999.0,NE,5.8,-,N/A,,Unknown,40,2012-10-22 03:56:00
10:56 PM,51.1,32.0,48,29.68,-9999.0,NNE,4.6,-,N/A,,Unknown,30,2012-10-22 04:56:00
11:56 PM,51.1,32.0,48,29.67,-9999.0,Calm,Calm,-,N/A,,Unknown,0,2012-10-22 05:56:00